Location: Estes Park
(40.3770°N, 105.5210°W)
Time: 11:42:04
(UTC-07:00)

Vanguard 2 - All Passes

Search period start: 23 February 2018 00:00
Search period end: 05 March 2018 00:00
Orbit: 553 x 2939 km, 32.9° (Epoch: 22 February)

Date Brightness Start Highest point End Pass type
(mag) Time Alt. Az. Time Alt. Az. Time Alt. Az.
23 Feb - 12:27:26 10° SE 12:28:30 10° SE 12:29:32 10° SE daylight
23 Feb - 14:26:29 10° SSW 14:38:58 29° SSE 14:48:06 10° E daylight
23 Feb - 16:36:22 10° SW 16:49:12 47° SSE 16:57:10 10° E daylight
23 Feb - 18:48:31 10° WSW 18:58:34 50° S 19:04:38 10° ESE visible
23 Feb - 21:00:40 10° W 21:06:34 26° SSW 21:10:46 10° SSE visible
24 Feb - 12:37:58 10° S 12:46:28 16° SE 12:53:54 10° ESE daylight
24 Feb - 14:43:19 10° SW 14:57:01 36° SSE 15:06:38 10° E daylight
24 Feb - 16:54:15 10° WSW 17:07:17 52° S 17:15:13 10° E daylight
24 Feb - 19:06:44 10° W 19:16:30 48° SSW 19:22:28 10° ESE visible
24 Feb - 21:19:17 10° WSW 21:24:12 20° SW 21:27:55 10° SSE visible
25 Feb - 12:52:55 10° S 13:04:25 22° SE 13:13:57 10° ESE daylight
25 Feb - 15:00:33 10° SW 15:15:06 42° SSE 15:24:56 10° E daylight
25 Feb - 17:12:18 10° WSW 17:25:20 56° S 17:33:12 10° ESE daylight
25 Feb - 19:25:01 10° W 19:34:23 43° SSW 19:40:12 10° SE visible
25 Feb - 21:38:25 10° WSW 21:41:43 14° SW 21:44:29 10° S visible
26 Feb - 13:08:56 10° SSW 13:22:23 29° SSE 13:33:07 10° E daylight
26 Feb - 15:18:06 10° SW 15:33:10 49° SSE 15:43:07 10° E daylight
26 Feb - 17:30:27 10° WSW 17:43:23 57° S 17:51:08 10° ESE daylight
26 Feb - 19:43:22 10° W 19:52:10 37° SSW 19:57:48 10° SE visible
27 Feb - 11:22:08 10° SSE 11:29:45 14° SE 11:36:53 10° ESE daylight
27 Feb - 13:25:33 10° SSW 13:40:21 35° SSE 13:51:48 10° E daylight
27 Feb - 15:35:53 10° WSW 15:51:15 54° S 16:01:13 10° E daylight
27 Feb - 17:48:41 10° W 18:01:24 56° S 18:09:01 10° ESE daylight
27 Feb - 20:01:49 10° W 20:09:51 30° SSW 20:15:12 10° SSE visible
28 Feb - 11:36:23 10° S 11:47:33 20° SE 11:57:42 10° ESE daylight
28 Feb - 13:42:37 10° SW 13:58:22 42° SSE 14:10:13 10° E daylight
28 Feb - 15:53:52 10° WSW 16:09:21 59° S 16:19:14 10° E daylight
28 Feb - 18:06:58 10° W 18:19:21 52° SSW 18:26:49 10° ESE visible
28 Feb - 20:20:29 10° W 20:27:25 23° SW 20:32:20 10° SSE visible
01 Mar - 11:52:03 10° SSW 12:05:21 27° SE 12:17:12 10° E daylight
01 Mar - 14:00:01 10° SW 14:16:24 49° SSE 14:28:28 10° E daylight
01 Mar - 16:11:58 10° WSW 16:27:27 61° S 16:37:13 10° ESE daylight
01 Mar - 18:25:18 10° W 18:37:14 47° SSW 18:44:31 10° SE visible
01 Mar - 20:39:33 10° WSW 20:44:52 17° SW 20:48:58 10° S visible
02 Mar - 10:08:33 10° SSE 10:12:57 11° SE 10:17:20 10° ESE daylight
02 Mar - 12:08:26 10° SSW 12:23:12 34° SSE 12:36:07 10° E daylight
02 Mar - 14:17:40 10° SW 14:34:28 55° SSE 14:46:37 10° E daylight
02 Mar - 16:30:11 10° W 16:45:32 61° S 16:55:10 10° ESE daylight
02 Mar - 18:43:42 10° W 18:55:00 41° SSW 19:02:05 10° SE visible
02 Mar - 20:59:51 10° WSW 21:02:13 11° SW 21:04:19 10° SSW visible
03 Mar - 10:21:02 10° S 10:30:35 17° SE 10:40:03 10° ESE daylight
03 Mar - 12:25:18 10° SSW 12:41:06 41° SSE 12:54:42 10° E daylight
03 Mar - 14:35:32 10° WSW 14:52:35 60° S 15:04:43 10° E daylight
03 Mar - 16:48:27 10° W 17:03:35 59° S 17:13:02 10° ESE daylight
03 Mar - 19:02:13 10° W 19:12:39 33° SSW 19:19:27 10° SSE visible
04 Mar - 10:36:09 10° S 10:48:12 24° SE 11:00:11 10° E daylight
04 Mar - 12:42:31 10° SW 12:59:03 47° SSE 13:13:04 10° E daylight
04 Mar - 14:53:33 10° WSW 15:10:43 63° S 15:22:45 10° E daylight
04 Mar - 17:06:46 10° W 17:21:33 55° SSW 17:30:50 10° ESE daylight
04 Mar - 19:20:56 10° W 19:30:10 26° SW 19:36:32 10° SSE visible
